Wetbulb
39.15 39.15 39.41 40.01 40.59 40.95 41.15 41.30 41.84 42.19 42.27 41.96 41.75 41.62 41.53 41.33 41.10 41.23 41.60 41.88 41.88 41.98 42.31 42.63 42.96 43.25 43.55 43.80 43.62 43.42 43.29 43.36 43.33 43.51 43.68 43.67 43.51 43.56 43.61 43.52 43.45 43.44 43.29 43.24 43.23 43.23 43.19 43.23 43.10 42.89 42.76 42.90 42.94 43.10 43.34 43.55 43.64 43.51 43.34 43.18 43.07 43.11 43.18 43.08 42.98 43.01 43.09 43.18 43.27
39.35 39.39 39.65 40.46 41.36 41.47 41.28 41.06 41.24 41.49 41.63 41.53 41.37 41.30 41.15 41.00 40.88 41.10 41.47 41.89 42.07 42.30 42.43 42.61 43.08 43.24 43.35 43.44 43.44 43.25 43.12 43.00 43.00 43.09 43.26 43.21 43.26 43.23 43.19 43.11 43.08 43.05 43.06 42.92 42.90 42.77 42.70 42.88 42.64 42.43 42.34 42.53 42.58 42.69 42.89 43.52 43.62 43.37 43.08 42.88 42.92 43.00 42.96 42.82 42.85 42.96 43.17 43.10 43.23
39.27 39.38 39.39 39.48 39.44 39.24 39.17 39.46 40.13 40.60 40.85 40.87 40.95 40.92 40.81 40.78 40.89 41.15 41.48 41.96 42.47 42.52 42.44 42.31 42.86 43.12 43.30 43.21 43.24 43.21 43.11 43.00 42.95 42.87 42.87 42.87 43.00 43.03 42.96 42.82 42.82 42.75 42.76 42.62 42.57 42.46 42.41 42.44 42.27 42.18 42.00 41.95 42.11 42.18 42.40 42.97 43.21 43.00 42.67 42.60 42.71 42.75 42.68 42.49 42.78 43.05 43.11 43.01 43.18
38.84 38.90 39.06 39.39 39.32 39.33 39.39 39.77 40.30 40.60 40.66 40.87 41.02 41.05 40.90 40.86 41.09 41.39 41.81 42.27 42.43 42.43 42.42 42.52 42.81 42.99 43.08 43.14 43.08 43.08 43.13 43.22 43.05 42.81 42.66 42.60 42.65 42.59 42.59 42.51 42.27 42.24 42.18 42.17 42.17 42.14 42.14 42.12 41.87 41.76 41.65 41.77 41.73 41.77 41.96 42.25 42.63 42.53 42.35 42.47 42.58 42.55 42.47 42.39 42.76 42.92 43.01 42.99 43.15
39.21 39.16 39.28 39.47 39.42 39.39 39.55 39.53 39.66 39.90 40.21 40.52 40.46 40.63 40.86 41.19 41.54 41.78 42.02 42.13 42.21 42.41 42.72 42.89 42.69 42.68 42.93 43.09 42.98 42.89 42.89 42.99 43.10 42.74 42.28 42.11 42.18 42.17 42.12 42.04 41.82 41.70 41.72 41.78 41.78 41.84 41.80 41.79 41.45 41.34 41.38 41.50 41.47 41.62 41.88 42.29 42.25 42.19 42.13 42.28 42.40 42.45 42.36 42.36 42.55 42.75 42.88 42.89 43.01
39.94 39.77 39.52 39.20 38.91 38.84 39.02 39.29 39.35 39.58 39.80 40.12 39.95 40.06 40.43 41.02 41.54 41.74 41.82 41.72 42.07 42.40 42.70 42.75 42.66 42.76 42.98 43.04 42.86 42.62 42.47 42.37 42.38 42.19 41.89 41.67 41.64 41.66 41.60 41.48 41.51 41.44 41.44 41.45 41.48 41.50 41.47 41.36 40.93 40.89 41.04 41.19 41.36 41.70 42.04 42.29 42.04 41.82 41.80 41.81 42.11 42.31 42.39 42.27 42.42 42.66 42.70 42.71 42.71
39.43 39.27 39.12 38.95 38.73 38.81 39.08 39.43 39.62 39.66 39.71 39.71 39.80 40.03 40.36 40.95 41.21 41.33 41.42 41.47 41.71 42.00 42.25 42.56 42.73 42.68 42.56 42.44 42.17 42.00 41.85 41.77 41.77 41.68 41.53 41.30 41.19 41.24 41.25 41.17 41.19 41.19 41.16 41.16 41.10 41.11 41.08 41.10 40.55 40.55 40.78 41.12 41.08 41.51 41.95 42.14 41.87 41.61 41.35 41.27 41.73 42.09 42.29 42.39 42.54 42.57 42.45 42.42 42.42
38.04 38.00 38.18 38.47 38.63 38.83 39.04 39.18 39.39 39.46 39.57 39.86 40.27 40.58 40.70 40.87 40.89 40.96 41.07 41.33 41.45 41.77 42.12 42.38 42.42 42.35 42.13 41.86 41.55 41.39 41.30 41.26 41.16 41.13 41.16 41.08 40.92 40.89 40.91 40.97 40.94 40.94 40.94 41.07 40.95 40.88 40.85 40.78 40.39 40.24 40.44 40.67 40.71 41.06 41.53 41.90 41.63 41.36 41.13 41.05 41.47 41.79 42.19 42.42 42.63 42.58 42.37 42.25 42.18
37.91 38.06 38.22 38.34 38.46 38.68 38.91 39.07 39.11 39.15 39.26 39.66 40.08 40.34 40.51 40.71 40.92 41.03 41.13 41.19 41.68 42.08 42.28 42.13 42.15 42.04 41.78 41.48 41.20 40.99 40.86 40.71 40.67 40.70 40.73 40.83 40.74 40.58 40.59 40.67 40.60 40.68 40.76 41.04 40.97 40.98 40.83 40.63 40.40 40.40 40.52 40.64 40.68 40.91 41.35 41.63 41.36 41.13 40.97 40.97 41.21 41.52 41.92 42.25 42.42 42.38 42.30 42.14 41.83
38.47 38.66 38.74 38.79 39.03 39.14 39.26 39.23 39.27 39.16 39.20 39.42 39.95 40.33 40.64 41.23 41.42 41.45 41.43 41.53 41.85 41.87 41.81 41.64 41.69 41.45 41.26 41.03 40.83 40.74 40.64 40.59 40.42 40.38 40.34 40.41 40.30 40.28 40.18 40.23 40.20 40.28 40.44 40.71 40.87 40.91 40.76 40.45 40.37 40.45 40.61 40.85 40.81 40.96 41.16 41.28 41.05 40.90 40.78 40.81 41.13 41.38 41.70 42.01 42.25 42.26 42.10 41.87 41.46
38.15 38.45 38.67 38.94 39.30 39.45 39.49 39.32 39.46 39.61 39.84 40.02 40.32 40.58 40.85 41.25 41.26 41.29 41.43 41.62 41.42 41.28 41.28 41.42 41.30 41.02 40.74 40.58 40.53 40.48 40.48 40.41 40.25 40.06 39.99 39.93 40.07 40.08 40.01 40.05 40.10 40.10 40.18 40.37 40.65 40.69 40.50 40.30 40.26 40.34 40.50 40.74 40.85 40.89 40.89 41.01 40.86 40.70 40.62 40.74 41.02 41.14 41.22 41.54 41.82 41.94 41.90 41.79 41.54
37.93 38.20 38.43 38.73 38.85 38.97 39.09 38.97 39.38 39.79 40.13 40.32 40.49 40.72 40.86 41.02 41.19 41.36 41.45 41.39 40.96 40.92 41.03 41.33 41.13 40.77 40.46 40.28 40.27 40.34 40.30 40.11 39.96 39.82 39.72 39.66 39.78 39.86 39.90 40.02 40.06 40.10 40.14 40.34 40.54 40.54 40.42 40.30 40.21 40.21 40.26 40.54 40.74 40.78 40.78 40.82 40.70 40.58 40.57 40.69 40.89 40.89 40.89 41.10 41.50 41.70 41.79 41.83 41.62
37.79 38.05 38.36 38.66 38.70 38.74 38.82 39.01 39.46 39.90 40.27 40.46 40.59 40.77 40.96 41.20 41.44 41.54 41.37 41.04 40.80 40.66 40.72 40.95 40.87 40.57 40.27 40.01 40.02 39.98 39.90 39.72 39.73 39.62 39.55 39.55 39.63 39.71 39.83 39.90 39.98 40.10 40.18 40.34 40.58 40.54 40.38 40.25 40.21 40.05 40.01 40.17 40.46 40.70 40.86 40.82 40.66 40.49 40.45 40.53 40.61 40.64 40.72 40.97 41.34 41.54 41.62 41.58 41.20
37.53 37.72 38.09 38.55 38.51 38.70 38.97 39.20 39.68 40.12 40.49 40.61 40.78 40.85 40.97 41.04 41.27 41.32 41.11 40.67 40.40 40.27 40.25 40.32 40.41 40.30 40.16 39.93 39.79 39.61 39.58 39.55 39.51 39.40 39.32 39.43 39.51 39.62 39.62 39.70 39.90 40.06 40.14 40.38 40.62 40.54 40.41 40.25 40.21 40.17 40.05 40.08 40.29 40.61 40.86 40.86 40.73 40.60 40.44 40.43 40.43 40.51 40.67 40.96 41.29 41.41 41.40 41.26 41.05
37.53 37.79 38.05 38.32 38.40 38.70 39.12 39.31 39.71 40.15 40.48 40.52 40.70 40.73 40.72 40.64 40.90 40.88 40.72 40.25 40.06 39.94 39.86 39.74 39.74 39.86 39.95 39.84 39.66 39.55 39.51 39.47 39.36 39.27 39.23 39.26 39.42 39.50 39.57 39.58 39.81 40.01 40.13 40.29 40.49 40.57 40.53 40.37 40.37 40.37 40.32 40.24 40.36 40.60 40.85 40.93 40.89 40.84 40.80 40.75 40.71 40.79 40.96 41.16 41.37 41.48 41.42 41.39 41.21
37.75 37.98 38.17 38.28 38.43 38.66 39.00 39.27 39.67 40.07 40.29 40.37 40.44 40.43 40.31 40.20 40.34 40.37 40.20 39.80 39.60 39.56 39.41 39.27 39.08 39.20 39.43 39.71 39.75 39.67 39.47 39.39 39.23 39.14 39.06 39.01 39.17 39.37 39.53 39.65 39.77 39.93 40.13 40.29 40.33 40.49 40.65 40.81 40.73 40.69 40.68 40.56 40.63 40.75 40.87 41.08 41.12 41.20 41.28 41.32 41.35 41.35 41.39 41.52 41.63 41.78 41.93 41.84 41.51
37.87 38.05 38.17 38.21 38.28 38.43 38.66 39.04 39.41 39.67 39.86 39.86 39.97 39.93 39.77 39.73 39.70 39.67 39.64 39.46 39.11 38.93 38.74 38.66 38.70 38.85 39.04 39.39 39.55 39.55 39.31 39.14 39.10 39.01 39.01 39.00 39.16 39.24 39.41 39.52 39.77 39.97 40.17 40.28 40.28 40.40 40.60 40.81 41.05 41.09 41.00 40.83 40.79 40.91 41.15 41.38 41.53 41.78 41.90 41.98 42.01 42.09 42.09 42.15 42.25 42.45 42.52 42.34 42.03
37.90 38.05 38.17 38.13 38.17 38.36 38.51 38.82 39.08 39.27 39.38 39.34 39.34 39.38 39.37 39.26 39.03 38.92 38.97 39.04 38.74 38.43 38.20 38.23 38.54 38.61 38.72 38.79 39.06 39.22 39.21 39.01 38.92 39.00 39.08 39.12 39.24 39.36 39.44 39.60 39.93 40.13 40.37 40.36 40.32 40.43 40.63 40.84 41.05 41.13 41.08 41.08 41.08 41.20 41.36 41.71 41.98 42.29 42.62 42.66 42.74 42.73 42.77 42.78 42.94 42.94 42.85 42.63 42.36
37.83 37.94 38.09 38.13 38.20 38.32 38.55 38.78 38.86 38.93 38.89 38.97 38.89 38.85 38.78 38.66 38.51 38.28 38.21 38.36 38.47 38.27 38.11 38.06 38.29 38.44 38.59 38.62 38.77 39.04 39.20 39.08 38.99 39.04 39.16 39.37 39.48 39.60 39.75 39.91 40.16 40.36 40.53 40.53 40.56 40.72 40.84 40.92 41.05 41.09 41.09 41.09 41.21 41.41 41.58 41.78 41.97 42.38 42.66 42.94 43.10 43.14 43.13 43.13 43.21 43.13 43.07 42.89 42.75
37.67 37.82 38.01 38.16 38.20 38.28 38.39 38.54 38.51 38.55 38.55 38.55 38.39 38.28 38.17 38.17 38.09 37.94 37.78 37.81 38.23 38.26 38.21 38.03 38.06 38.21 38.41 38.56 38.63 38.83 39.07 39.24 39.20 39.20 39.32 39.57 39.68 39.80 39.99 40.24 40.36 40.56 40.73 40.81 40.89 40.97 41.05 41.13 41.13 41.17 41.25 41.33 41.37 41.58 41.78 41.95 42.07 42.23 42.43 42.63 42.92 43.21 43.42 43.38 43.33 43.40 43.39 43.29 43.24
37.71 37.82 38.01 38.12 38.08 38.04 38.11 38.23 38.27 38.27 38.19 38.08 38.00 37.89 37.82 37.85 37.85 37.69 37.80 37.94 38.25 38.24 38.15 38.05 38.12 38.15 38.26 38.46 38.57 38.73 39.02 39.47 39.52 39.48 39.56 39.81 39.93 40.09 40.33 40.49 40.65 40.81 40.93 41.05 41.14 41.22 41.25 41.33 41.46 41.62 41.70 41.82 41.78 41.82 41.94 42.02 42.14 42.34 42.50 42.46 42.76 43.00 43.30 43.56 43.51 43.46 43.45 43.44 43.34
37.82 37.97 37.92 37.92 37.87 37.87 38.02 38.10 38.14 37.95 37.88 37.73 37.65 37.62 37.62 37.61 37.64 37.71 37.93 38.16 38.30 38.24 38.27 38.29 38.36 38.40 38.44 38.63 38.67 38.88 39.17 39.50 39.63 39.79 39.88 39.93 40.13 40.37 40.66 40.90 40.85 40.85 40.97 41.17 41.29 41.49 41.62 41.82 41.99 42.11 42.19 42.06 42.14 42.18 42.22 42.18 42.25 42.49 42.74 42.87 43.04 43.21 43.33 43.60 43.60 43.59 43.55 43.58 43.53
37.81 37.76 37.75 37.83 37.78 37.89 38.00 37.93 37.74 37.55 37.44 37.41 37.45 37.45 37.44 37.43 37.65 37.80 37.99 38.10 38.13 38.23 38.29 38.36 38.60 38.72 38.89 39.05 39.09 39.17 39.25 39.41 39.62 39.91 40.16 40.29 40.25 40.49 40.77 41.02 40.97 40.88 40.92 41.12 41.32 41.48 41.61 41.90 42.19 42.48 42.64 42.60 42.67 42.71 42.76 42.55 42.54 42.66 42.85 43.14 43.31 43.49 43.53 43.58 43.71 43.88 44.01 43.97 43.88
37.44 37.39 37.57 37.81 37.61 37.48 37.32 37.25 37.14 37.07 37.04 37.12 37.19 37.26 37.29 37.35 37.54 37.70 37.81 37.92 38.00 38.11 38.26 38.50 38.82 39.06 39.26 39.24 39.27 39.39 39.46 39.53 39.61 39.78 40.04 40.12 40.32 40.53 40.77 40.97 40.92 40.88 41.00 41.20 41.82 42.23 42.43 42.64 42.84 43.30 43.80 44.05 44.17 44.16 44.16 43.99 43.76 43.62 43.48 43.48 43.53 43.53 43.72 43.90 44.01 44.05 44.22 44.26 44.14
37.09 37.04 37.14 37.14 37.06 37.02 36.99 36.96 36.85 36.81 36.85 36.97 37.08 37.19 37.21 37.28 37.39 37.59 37.67 37.86 38.07 38.27 38.51 38.71 38.96 39.08 39.12 39.17 39.38 39.49 39.52 39.47 39.45 39.52 39.73 39.98 40.39 40.59 40.67 40.63 40.71 40.84 41.09 41.66 43.52 44.67 45.09 45.01 44.75 44.83 45.03 45.42 45.60 45.64 45.69 45.60 45.42 45.10 44.83 44.52 44.29 44.12 43.99 44.18 44.41 44.55 44.60 44.64 44.52
36.77 36.71 36.67 36.71 36.71 36.64 36.65 36.66 36.70 36.71 36.78 36.94 37.00 37.03 37.14 37.29 37.50 37.65 37.78 37.90 38.19 38.52 38.73 38.81 38.74 38.94 39.10 39.15 39.23 39.18 39.21 39.20 39.26 39.31 39.42 39.82 40.23 40.52 40.61 40.53 40.75 40.88 41.33 42.73 44.54 45.70 46.43 46.92 46.97 46.67 46.36 46.13 46.36 46.45 46.63 46.76 46.81 46.81 46.58 46.31 46.04 45.55 45.05 44.60 44.65 44.84 45.03 45.13 45.08
36.36 36.35 36.40 36.49 36.49 36.45 36.50 36.68 36.76 36.72 36.75 36.86 36.84 36.92 37.12 37.32 37.61 37.77 37.87 38.08 38.38 38.59 38.67 38.56 38.52 38.87 39.18 38.99 38.75 38.70 38.77 39.03 39.25 39.39 39.53 39.80 39.91 40.12 40.38 40.48 40.78 41.03 41.81 43.69 45.31 46.31 47.09 47.75 48.06 48.07 47.60 46.90 46.90 46.90 47.03 47.35 47.52 47.48 47.34 47.17 47.08 46.76 46.36 45.82 45.55 45.46 45.47 45.44 45.48
36.03 36.12 36.17 36.17 36.17 36.30 36.52 36.70 36.65 36.60 36.63 36.70 36.82 37.01 37.18 37.39 37.65 37.87 38.05 38.23 38.40 38.32 38.24 38.12 38.48 38.67 38.77 38.52 38.52 38.52 38.67 38.89 39.15 39.45 39.72 39.96 40.03 40.12 40.24 40.46 40.72 41.51 42.89 44.88 46.01 46.75 47.49 48.15 48.63 48.85 48.69 48.00 47.39 47.21 47.35 47.35 47.48 47.57 47.53 47.44 47.30 47.12 46.90 46.72 46.54 46.40 46.18 46.00 45.96
35.76 35.80 35.83 35.83 35.96 36.19 36.37 36.50 36.41 36.48 36.64 36.80 36.96 37.12 37.30 37.52 37.79 37.98 38.04 38.01 37.84 37.67 37.66 37.77 38.30 38.41 38.31 38.22 38.33 38.48 38.76 38.99 39.30 39.57 39.84 39.95 40.11 40.28 40.45 40.61 40.95 42.04 43.68 45.75 46.40 47.01 47.62 48.24 48.77 49.20 49.38 49.08 48.10 47.57 47.39 47.35 47.30 47.30 47.30 47.12 47.03 46.90 46.90 47.03 47.08 46.94 46.81 46.63 46.54
35.69 35.67 35.70 35.74 35.92 36.11 36.25 36.38 36.46 36.58 36.74 36.91 37.12 37.21 37.35 37.63 37.78 37.72 37.61 37.32 37.14 37.21 37.52 37.80 37.95 37.94 37.93 38.04 38.22 38.48 38.75 39.15 39.69 39.94 39.96 39.78 39.90 40.15 40.57 41.19 41.32 42.20 43.73 45.66 46.40 47.06 47.71 48.33 48.86 49.29 49.60 49.55 48.67 47.93 47.44 47.39 47.48 47.35 47.21 47.03 47.03 47.17 47.30 47.30 47.30 47.21 47.17 47.08 47.08
35.56 35.63 35.61 35.74 35.85 35.95 36.18 36.36 36.56 36.72 36.89 36.93 37.07 37.22 37.30 37.41 37.35 37.27 37.10 36.96 37.07 37.50 37.95 38.14 37.84 37.83 38.02 38.37 38.54 38.72 39.04 39.42 39.76 39.89 39.88 39.69 40.10 40.54 40.96 41.30 41.43 42.23 43.72 45.66 46.45 47.23 47.85 48.42 48.90 49.29 49.64 49.82 49.07 48.28 47.66 47.53 47.57 47.62 47.57 47.62 47.61 47.66 47.75 47.75 47.52 47.30 47.12 47.12 47.08
35.47 35.57 35.65 35.74 35.81 36.01 36.19 36.49 36.62 36.71 36.88 36.93 37.01 37.08 37.07 37.01 36.92 36.99 37.02 37.17 37.28 37.48 37.68 37.79 37.77 37.96 38.35 38.70 38.87 39.06 39.23 39.45 39.58 39.86 40.04 40.16 40.26 40.56 40.94 41.25 41.55 42.35 43.80 45.79 46.66 47.41 47.98 48.55 48.90 49.34 49.69 49.99 49.33 48.55 47.84 47.71 47.80 47.98 48.20 48.20 48.15 48.01 47.84 47.66 47.57 47.48 47.39 47.30 47.21
35.55 35.67 35.71 35.72 35.82 36.02 36.20 36.43 36.60 36.74 36.84 36.87 36.90 36.80 36.68 36.56 36.62 36.74 36.91 37.19 37.38 37.33 37.32 37.54 37.89 38.07 38.24 38.42 38.61 38.83 39.22 39.41 39.58 40.02 40.42 40.61 40.68 40.80 41.13 41.51 41.69 42.81 44.36 46.10 46.88 47.50 48.02 48.60 49.03 49.43 49.77 50.10 49.23 48.50 48.06 48.16 48.16 48.29 48.38 48.24 48.10 47.92 47.79 47.61 47.57 47.52 47.48 47.43 47.43
35.61 35.68 35.68 35.74 35.80 35.99 36.14 36.36 36.55 36.70 36.60 36.59 36.48 36.40 36.26 36.18 36.22 36.27 36.61 37.16 37.45 37.65 37.80 38.05 38.22 38.28 38.39 38.52 38.47 38.60 38.77 39.36 39.65 39.85 40.08 40.36 40.62 40.93 41.20 41.50 41.63 43.15 45.05 46.36 47.02 47.59 48.07 48.59 49.03 49.42 49.66 49.78 48.83 48.23 48.02 47.97 47.97 47.97 47.88 47.79 47.79 47.79 47.66 47.61 47.48 47.43 47.39 47.48 47.39
35.52 35.51 35.52 35.67 35.85 35.96 36.11 36.26 36.46 36.49 36.26 36.03 35.85 35.83 35.90 36.01 36.02 36.25 36.64 37.43 37.99 38.11 38.26 38.52 38.62 38.66 38.71 38.77 38.77 38.75 38.90 39.19 39.44 39.73 40.05 40.39 40.75 41.05 41.34 41.47 41.91 43.49 45.40 46.49 47.11 47.63 48.16 48.68 49.06 49.31 49.34 49.05 48.23 47.84 47.61 47.52 47.35 47.26 47.25 47.21 47.25 47.34 47.39 47.43 47.34 47.30 47.26 47.34 47.26
35.49 35.52 35.47 35.61 35.73 35.93 36.00 36.17 36.14 35.99 35.75 35.47 35.32 35.42 35.62 35.95 36.19 36.63 37.21 38.14 38.32 38.33 38.34 38.50 38.60 38.56 38.57 38.62 38.80 39.03 39.29 39.20 39.40 39.78 40.27 40.71 40.91 40.96 41.03 41.34 41.77 43.39 45.22 46.58 47.15 47.67 48.20 48.67 48.96 49.20 49.08 48.34 47.57 47.30 47.35 47.26 47.03 46.90 46.85 46.81 46.90 46.94 47.08 47.12 47.08 47.03 46.99 46.81 46.76
35.60 35.58 35.57 35.58 35.66 35.83 35.93 36.02 35.80 35.44 35.21 34.97 35.04 35.28 35.58 36.03 36.35 36.95 37.61 38.31 38.08 38.08 38.23 38.38 38.43 38.47 38.48 38.57 38.77 39.26 39.71 39.95 39.86 40.10 40.43 40.92 40.82 40.70 40.84 41.25 41.74 43.02 44.74 46.32 47.06 47.71 48.15 48.57 49.00 49.09 48.76 47.65 46.99 46.81 46.94 46.81 46.72 46.67 46.63 46.63 46.67 46.76 46.90 46.90 46.85 46.67 46.45 46.36 46.40
35.67 35.74 35.77 35.69 35.73 35.75 35.81 35.70 35.30 34.95 34.80 34.75 35.06 35.41 35.88 36.27 36.51 37.17 37.89 38.48 37.86 37.74 37.95 38.25 38.40 38.53 38.78 39.06 39.31 39.75 40.20 40.38 40.50 40.47 40.50 40.60 40.63 40.78 40.98 41.48 42.19 43.14 44.43 46.01 46.88 47.53 48.01 48.54 49.07 49.34 48.84 47.30 46.72 46.45 46.36 46.27 46.22 46.27 46.36 46.45 46.49 46.59 46.67 46.67 46.59 46.32 46.05 46.00 46.67
35.77 35.94 35.98 35.87 35.75 35.68 35.53 35.32 35.02 34.84 34.75 34.95 35.27 35.64 36.06 36.38 36.82 37.48 38.06 38.49 37.95 37.73 37.68 37.71 38.16 38.63 39.19 39.86 39.92 40.00 40.23 40.52 40.69 40.60 40.50 40.40 40.81 41.60 42.16 42.15 42.55 43.28 44.27 45.62 46.53 47.18 47.84 48.60 49.18 49.35 48.91 47.46 46.50 46.10 46.05 45.86 45.73 45.73 45.95 46.18 46.05 46.06 46.10 46.14 46.19 45.92 45.69 45.65 46.99
35.89 36.15 36.17 36.08 35.89 35.64 35.33 35.04 34.97 35.06 35.19 35.39 35.41 35.75 36.13 36.73 37.30 37.89 38.28 38.44 38.26 37.94 37.76 37.72 38.32 39.02 39.68 40.41 40.25 40.02 39.98 40.28 40.43 40.69 40.86 40.86 41.54 42.72 43.44 42.64 42.56 43.00 43.88 45.14 46.10 47.06 47.85 48.65 48.90 48.79 48.20 46.78 46.27 46.05 45.86 45.54 45.27 45.23 45.28 45.39 45.18 45.01 45.09 45.31 45.57 45.52 45.38 45.33 46.36
36.20 36.34 36.37 36.27 35.99 35.67 35.37 35.15 35.18 35.37 35.63 35.70 35.74 36.12 36.69 37.39 37.63 37.89 38.08 38.18 38.21 38.13 38.10 38.27 38.87 39.31 39.84 40.42 40.10 39.73 39.62 39.71 40.25 40.63 41.04 41.55 41.88 42.77 43.24 42.55 42.45 42.71 43.45 44.58 45.92 47.11 47.94 48.33 48.12 47.92 47.52 46.52 46.36 46.05 45.68 45.18 44.86 44.65 44.49 44.43 44.35 44.31 44.39 44.66 45.05 45.26 45.25 45.20 45.33
MSLP
1022.88 1022.92 1022.88 1022.84 1022.72 1022.60 1022.56 1022.44 1022.36 1022.32 1022.24 1022.16 1022.04 1021.96 1021.88 1021.80 1021.68 1021.56 1021.44 1021.36 1021.24 1021.04 1020.88 1020.72 1020.60 1020.44 1020.32 1020.16 1020.12 1020.00 1019.88 1019.76 1019.68 1019.56 1019.44 1019.32 1019.20 1019.08 1018.96 1018.88 1018.80 1018.72 1018.60 1018.48 1018.40 1018.28 1018.16 1018.08 1017.96 1017.84 1017.68 1017.56 1017.40 1017.24 1017.12 1017.04 1016.96 1016.84 1016.72 1016.64 1016.56 1016.44 1016.32 1016.24 1016.16 1016.08 1016.04 1016.00 1016.00
1022.72 1022.72 1022.72 1022.64 1022.52 1022.44 1022.40 1022.32 1022.20 1022.12 1022.04 1022.00 1021.96 1021.88 1021.80 1021.72 1021.60 1021.44 1021.32 1021.20 1021.12 1020.96 1020.76 1020.60 1020.44 1020.32 1020.16 1020.04 1020.00 1019.88 1019.72 1019.60 1019.44 1019.36 1019.24 1019.12 1019.00 1018.88 1018.80 1018.68 1018.60 1018.48 1018.40 1018.28 1018.16 1018.04 1017.96 1017.84 1017.72 1017.60 1017.44 1017.32 1017.16 1017.00 1016.88 1016.80 1016.72 1016.60 1016.48 1016.40 1016.32 1016.24 1016.16 1016.00 1015.92 1015.84 1015.80 1015.80 1015.72
1022.64 1022.60 1022.56 1022.52 1022.44 1022.36 1022.32 1022.20 1022.04 1021.96 1021.88 1021.88 1021.84 1021.80 1021.72 1021.64 1021.52 1021.36 1021.20 1021.04 1020.92 1020.84 1020.68 1020.52 1020.32 1020.16 1020.00 1019.88 1019.76 1019.72 1019.60 1019.44 1019.32 1019.16 1019.04 1018.88 1018.72 1018.64 1018.56 1018.44 1018.32 1018.24 1018.16 1018.08 1017.96 1017.88 1017.76 1017.68 1017.56 1017.44 1017.24 1017.04 1016.88 1016.72 1016.60 1016.48 1016.48 1016.40 1016.28 1016.12 1016.08 1016.00 1015.92 1015.76 1015.64 1015.60 1015.60 1015.52 1015.44
1022.56 1022.48 1022.44 1022.36 1022.32 1022.20 1022.16 1022.04 1021.92 1021.84 1021.80 1021.76 1021.72 1021.68 1021.60 1021.56 1021.40 1021.24 1021.08 1020.92 1020.80 1020.68 1020.52 1020.32 1020.16 1020.00 1019.88 1019.72 1019.60 1019.48 1019.40 1019.24 1019.12 1018.96 1018.80 1018.64 1018.52 1018.44 1018.32 1018.24 1018.16 1018.00 1017.92 1017.84 1017.76 1017.64 1017.56 1017.48 1017.36 1017.20 1017.04 1016.84 1016.68 1016.56 1016.40 1016.32 1016.24 1016.16 1016.04 1015.96 1015.88 1015.80 1015.64 1015.52 1015.44 1015.36 1015.32 1015.20 1015.16
1022.44 1022.40 1022.32 1022.24 1022.16 1022.12 1022.04 1021.96 1021.88 1021.80 1021.72 1021.68 1021.60 1021.56 1021.44 1021.32 1021.20 1021.04 1020.88 1020.76 1020.60 1020.44 1020.28 1020.16 1020.04 1019.88 1019.72 1019.60 1019.40 1019.24 1019.16 1019.04 1018.92 1018.80 1018.64 1018.44 1018.32 1018.20 1018.12 1018.00 1017.92 1017.80 1017.72 1017.60 1017.52 1017.44 1017.36 1017.28 1017.16 1017.00 1016.80 1016.64 1016.44 1016.32 1016.16 1016.16 1016.04 1015.92 1015.84 1015.76 1015.68 1015.60 1015.44 1015.32 1015.24 1015.16 1015.12 1015.04 1014.96
1022.32 1022.28 1022.24 1022.20 1022.16 1022.08 1022.00 1021.88 1021.80 1021.72 1021.72 1021.60 1021.56 1021.40 1021.28 1021.16 1021.04 1020.88 1020.72 1020.52 1020.40 1020.28 1020.16 1020.04 1019.88 1019.72 1019.52 1019.32 1019.20 1019.04 1018.92 1018.76 1018.68 1018.60 1018.44 1018.24 1018.12 1018.00 1017.88 1017.76 1017.68 1017.60 1017.48 1017.40 1017.28 1017.20 1017.16 1017.08 1016.92 1016.72 1016.60 1016.40 1016.20 1016.04 1015.96 1015.88 1015.80 1015.72 1015.60 1015.48 1015.44 1015.36 1015.28 1015.12 1015.04 1015.00 1014.88 1014.80 1014.72
1022.28 1022.24 1022.20 1022.12 1022.08 1022.00 1021.88 1021.76 1021.72 1021.68 1021.64 1021.56 1021.40 1021.24 1021.12 1021.00 1020.88 1020.72 1020.60 1020.44 1020.28 1020.16 1020.00 1019.84 1019.64 1019.44 1019.32 1019.16 1019.04 1018.88 1018.72 1018.60 1018.44 1018.36 1018.20 1018.04 1017.88 1017.76 1017.68 1017.56 1017.44 1017.36 1017.28 1017.16 1017.04 1016.96 1016.92 1016.88 1016.72 1016.48 1016.32 1016.16 1016.00 1015.80 1015.72 1015.68 1015.60 1015.48 1015.36 1015.24 1015.16 1015.12 1015.04 1014.92 1014.88 1014.80 1014.72 1014.60 1014.52
1022.32 1022.24 1022.16 1022.08 1022.00 1021.88 1021.76 1021.72 1021.64 1021.60 1021.48 1021.36 1021.24 1021.08 1020.96 1020.84 1020.72 1020.60 1020.44 1020.32 1020.16 1019.96 1019.76 1019.60 1019.40 1019.28 1019.16 1019.04 1018.88 1018.72 1018.56 1018.44 1018.28 1018.12 1017.96 1017.84 1017.64 1017.56 1017.44 1017.36 1017.24 1017.12 1017.04 1016.96 1016.88 1016.72 1016.64 1016.60 1016.44 1016.24 1016.04 1015.92 1015.72 1015.60 1015.44 1015.44 1015.40 1015.28 1015.12 1015.04 1014.92 1014.88 1014.84 1014.72 1014.68 1014.60 1014.52 1014.44 1014.36
1022.20 1022.16 1022.12 1022.04 1021.92 1021.80 1021.72 1021.60 1021.56 1021.48 1021.40 1021.24 1021.08 1020.96 1020.84 1020.72 1020.60 1020.44 1020.28 1020.12 1019.88 1019.72 1019.60 1019.40 1019.24 1019.16 1019.04 1018.88 1018.72 1018.56 1018.40 1018.20 1018.00 1017.88 1017.72 1017.60 1017.44 1017.32 1017.16 1017.08 1017.00 1016.88 1016.76 1016.72 1016.64 1016.52 1016.40 1016.28 1016.16 1015.96 1015.80 1015.68 1015.48 1015.32 1015.24 1015.20 1015.12 1015.04 1014.88 1014.76 1014.68 1014.60 1014.60 1014.52 1014.44 1014.36 1014.28 1014.16 1014.12
1022.12 1022.04 1022.00 1021.88 1021.80 1021.68 1021.60 1021.52 1021.44 1021.36 1021.28 1021.08 1020.92 1020.80 1020.68 1020.56 1020.40 1020.24 1020.08 1019.88 1019.72 1019.52 1019.40 1019.32 1019.12 1019.00 1018.84 1018.64 1018.48 1018.32 1018.16 1018.00 1017.80 1017.60 1017.44 1017.32 1017.20 1017.12 1017.00 1016.88 1016.76 1016.64 1016.56 1016.48 1016.40 1016.32 1016.16 1016.04 1015.88 1015.72 1015.60 1015.44 1015.32 1015.16 1015.04 1015.00 1014.88 1014.76 1014.64 1014.56 1014.44 1014.32 1014.28 1014.20 1014.16 1014.12 1014.00 1013.92 1013.88
1022.04 1022.00 1021.88 1021.76 1021.64 1021.56 1021.44 1021.40 1021.24 1021.16 1021.04 1020.88 1020.72 1020.60 1020.48 1020.36 1020.24 1020.08 1019.92 1019.76 1019.60 1019.44 1019.28 1019.12 1019.00 1018.80 1018.60 1018.44 1018.28 1018.08 1017.92 1017.76 1017.64 1017.44 1017.32 1017.16 1017.04 1016.92 1016.84 1016.68 1016.60 1016.44 1016.32 1016.24 1016.16 1016.08 1015.92 1015.76 1015.60 1015.44 1015.32 1015.20 1015.08 1014.92 1014.80 1014.72 1014.64 1014.52 1014.40 1014.32 1014.20 1014.08 1014.00 1013.88 1013.88 1013.84 1013.76 1013.64 1013.60
1022.00 1021.88 1021.80 1021.68 1021.60 1021.44 1021.36 1021.24 1021.12 1021.00 1020.84 1020.72 1020.56 1020.44 1020.28 1020.16 1020.00 1019.88 1019.76 1019.60 1019.44 1019.24 1019.04 1018.92 1018.76 1018.60 1018.40 1018.24 1018.08 1017.88 1017.72 1017.60 1017.44 1017.32 1017.16 1017.00 1016.84 1016.72 1016.60 1016.48 1016.40 1016.28 1016.12 1016.00 1015.96 1015.88 1015.72 1015.52 1015.32 1015.16 1015.04 1014.92 1014.84 1014.72 1014.56 1014.44 1014.32 1014.24 1014.12 1014.00 1013.92 1013.84 1013.72 1013.60 1013.56 1013.52 1013.44 1013.36 1013.32
1021.92 1021.80 1021.68 1021.52 1021.44 1021.32 1021.24 1021.12 1020.96 1020.80 1020.64 1020.52 1020.36 1020.24 1020.12 1019.96 1019.84 1019.72 1019.60 1019.44 1019.24 1019.04 1018.84 1018.68 1018.60 1018.44 1018.24 1018.04 1017.88 1017.76 1017.60 1017.44 1017.32 1017.16 1017.04 1016.84 1016.72 1016.56 1016.44 1016.32 1016.16 1016.04 1015.92 1015.76 1015.72 1015.60 1015.44 1015.24 1015.12 1014.92 1014.76 1014.64 1014.52 1014.44 1014.32 1014.16 1014.08 1013.96 1013.84 1013.72 1013.60 1013.48 1013.36 1013.28 1013.24 1013.20 1013.16 1013.12 1013.04
1021.80 1021.68 1021.56 1021.40 1021.32 1021.20 1021.08 1020.96 1020.76 1020.60 1020.44 1020.32 1020.16 1020.04 1019.92 1019.80 1019.64 1019.52 1019.40 1019.20 1019.04 1018.88 1018.68 1018.52 1018.40 1018.28 1018.12 1017.96 1017.80 1017.64 1017.48 1017.32 1017.16 1017.00 1016.84 1016.68 1016.56 1016.40 1016.24 1016.08 1015.92 1015.80 1015.72 1015.56 1015.44 1015.32 1015.20 1015.04 1014.84 1014.68 1014.52 1014.36 1014.24 1014.12 1014.04 1013.96 1013.80 1013.68 1013.56 1013.44 1013.32 1013.20 1013.12 1013.00 1012.92 1012.92 1012.88 1012.80 1012.72
1021.60 1021.52 1021.40 1021.32 1021.20 1021.08 1020.92 1020.80 1020.64 1020.44 1020.32 1020.16 1020.04 1019.92 1019.80 1019.64 1019.48 1019.36 1019.24 1019.08 1018.92 1018.72 1018.56 1018.40 1018.20 1018.08 1017.96 1017.88 1017.72 1017.56 1017.40 1017.24 1017.08 1016.88 1016.64 1016.48 1016.32 1016.16 1016.00 1015.88 1015.72 1015.60 1015.44 1015.32 1015.16 1015.04 1014.88 1014.72 1014.60 1014.44 1014.24 1014.08 1013.96 1013.84 1013.72 1013.64 1013.52 1013.40 1013.28 1013.16 1013.04 1012.88 1012.80 1012.68 1012.60 1012.60 1012.52 1012.44 1012.44
1021.44 1021.32 1021.24 1021.16 1021.04 1020.92 1020.80 1020.68 1020.52 1020.32 1020.16 1020.00 1019.92 1019.80 1019.68 1019.52 1019.36 1019.24 1019.12 1019.00 1018.76 1018.60 1018.44 1018.32 1018.12 1017.96 1017.80 1017.72 1017.60 1017.44 1017.24 1017.04 1016.88 1016.68 1016.44 1016.28 1016.08 1015.92 1015.80 1015.60 1015.48 1015.32 1015.20 1015.04 1014.88 1014.72 1014.60 1014.48 1014.32 1014.16 1014.00 1013.84 1013.68 1013.52 1013.40 1013.32 1013.16 1013.08 1012.96 1012.80 1012.72 1012.60 1012.48 1012.36 1012.32 1012.28 1012.20 1012.16 1012.12
1021.28 1021.16 1021.08 1021.00 1020.88 1020.76 1020.68 1020.56 1020.40 1020.24 1020.08 1019.96 1019.84 1019.72 1019.60 1019.44 1019.28 1019.12 1019.00 1018.88 1018.68 1018.44 1018.32 1018.20 1018.08 1017.88 1017.68 1017.52 1017.44 1017.32 1017.12 1016.88 1016.68 1016.48 1016.28 1016.08 1015.88 1015.72 1015.56 1015.40 1015.24 1015.12 1014.96 1014.76 1014.60 1014.40 1014.24 1014.16 1014.00 1013.88 1013.72 1013.60 1013.40 1013.24 1013.12 1013.00 1012.88 1012.72 1012.64 1012.52 1012.40 1012.32 1012.20 1012.08 1012.00 1011.96 1011.88 1011.84 1011.76
1021.16 1021.04 1020.96 1020.88 1020.76 1020.68 1020.56 1020.44 1020.32 1020.16 1020.00 1019.88 1019.76 1019.60 1019.44 1019.32 1019.16 1019.04 1018.88 1018.76 1018.60 1018.44 1018.20 1018.04 1017.92 1017.80 1017.60 1017.40 1017.24 1017.12 1016.96 1016.72 1016.44 1016.28 1016.08 1015.88 1015.72 1015.48 1015.32 1015.16 1015.00 1014.84 1014.68 1014.48 1014.32 1014.12 1013.96 1013.80 1013.68 1013.56 1013.40 1013.28 1013.08 1012.92 1012.76 1012.64 1012.52 1012.40 1012.28 1012.16 1012.00 1011.92 1011.84 1011.76 1011.68 1011.60 1011.56 1011.44 1011.40
1021.00 1020.88 1020.80 1020.72 1020.64 1020.56 1020.44 1020.32 1020.20 1020.08 1019.92 1019.80 1019.64 1019.44 1019.32 1019.24 1019.08 1018.92 1018.72 1018.60 1018.48 1018.32 1018.16 1017.92 1017.72 1017.60 1017.44 1017.28 1017.12 1016.92 1016.72 1016.56 1016.32 1016.08 1015.88 1015.72 1015.48 1015.28 1015.08 1014.92 1014.72 1014.56 1014.36 1014.16 1014.00 1013.84 1013.64 1013.48 1013.32 1013.20 1013.04 1012.88 1012.72 1012.56 1012.40 1012.28 1012.12 1012.00 1011.84 1011.72 1011.60 1011.48 1011.40 1011.32 1011.24 1011.16 1011.12 1011.04 1010.96
1020.88 1020.80 1020.72 1020.64 1020.56 1020.44 1020.36 1020.24 1020.12 1020.00 1019.84 1019.72 1019.52 1019.36 1019.20 1019.08 1018.96 1018.80 1018.60 1018.44 1018.32 1018.20 1018.04 1017.84 1017.60 1017.40 1017.20 1017.04 1016.88 1016.72 1016.52 1016.32 1016.12 1015.88 1015.60 1015.44 1015.24 1015.04 1014.84 1014.64 1014.44 1014.28 1014.04 1013.88 1013.68 1013.48 1013.32 1013.16 1013.00 1012.84 1012.68 1012.52 1012.32 1012.16 1012.00 1011.84 1011.72 1011.56 1011.44 1011.32 1011.16 1011.04 1010.92 1010.84 1010.76 1010.72 1010.64 1010.60 1010.56
1020.80 1020.72 1020.64 1020.56 1020.48 1020.40 1020.28 1020.16 1020.00 1019.88 1019.72 1019.60 1019.44 1019.24 1019.04 1018.88 1018.76 1018.60 1018.48 1018.32 1018.16 1018.00 1017.88 1017.68 1017.44 1017.20 1017.00 1016.84 1016.64 1016.44 1016.28 1016.08 1015.88 1015.60 1015.40 1015.16 1014.96 1014.72 1014.56 1014.36 1014.16 1013.92 1013.72 1013.52 1013.32 1013.16 1013.00 1012.80 1012.64 1012.48 1012.32 1012.16 1012.00 1011.84 1011.68 1011.48 1011.32 1011.16 1011.04 1010.88 1010.76 1010.60 1010.48 1010.40 1010.32 1010.24 1010.16 1010.12 1010.04
1020.72 1020.64 1020.56 1020.48 1020.44 1020.32 1020.20 1020.08 1019.92 1019.76 1019.60 1019.44 1019.28 1019.08 1018.92 1018.76 1018.60 1018.44 1018.32 1018.16 1018.00 1017.84 1017.64 1017.44 1017.24 1017.04 1016.80 1016.60 1016.40 1016.16 1016.00 1015.80 1015.60 1015.36 1015.16 1014.92 1014.68 1014.44 1014.28 1014.12 1013.88 1013.60 1013.44 1013.24 1013.04 1012.88 1012.72 1012.52 1012.32 1012.16 1012.00 1011.84 1011.64 1011.44 1011.32 1011.12 1010.92 1010.76 1010.60 1010.44 1010.28 1010.16 1010.00 1009.92 1009.88 1009.76 1009.68 1009.60 1009.60
1020.64 1020.56 1020.48 1020.44 1020.32 1020.20 1020.08 1019.92 1019.76 1019.60 1019.44 1019.28 1019.08 1018.92 1018.76 1018.60 1018.44 1018.28 1018.16 1018.00 1017.80 1017.60 1017.44 1017.24 1017.04 1016.80 1016.60 1016.40 1016.16 1015.92 1015.72 1015.48 1015.28 1015.08 1014.88 1014.68 1014.44 1014.24 1014.00 1013.84 1013.60 1013.40 1013.16 1013.00 1012.80 1012.60 1012.44 1012.24 1012.00 1011.84 1011.68 1011.44 1011.28 1011.04 1010.88 1010.68 1010.44 1010.32 1010.08 1009.88 1009.72 1009.60 1009.52 1009.44 1009.36 1009.28 1009.20 1009.16 1009.04
1020.60 1020.48 1020.44 1020.32 1020.16 1020.08 1020.00 1019.84 1019.64 1019.44 1019.28 1019.08 1018.88 1018.72 1018.60 1018.44 1018.28 1018.12 1017.92 1017.72 1017.60 1017.40 1017.20 1016.96 1016.76 1016.56 1016.32 1016.12 1015.92 1015.68 1015.44 1015.20 1015.00 1014.76 1014.60 1014.36 1014.16 1014.00 1013.76 1013.56 1013.36 1013.16 1012.96 1012.76 1012.60 1012.36 1012.16 1011.96 1011.68 1011.44 1011.24 1011.08 1010.88 1010.64 1010.44 1010.28 1010.08 1009.88 1009.64 1009.44 1009.28 1009.16 1009.04 1008.88 1008.76 1008.72 1008.68 1008.60 1008.56
1020.52 1020.44 1020.32 1020.24 1020.12 1020.00 1019.84 1019.64 1019.48 1019.28 1019.08 1018.92 1018.76 1018.60 1018.44 1018.28 1018.12 1017.92 1017.72 1017.48 1017.32 1017.12 1016.92 1016.72 1016.48 1016.28 1016.04 1015.84 1015.60 1015.40 1015.20 1015.00 1014.76 1014.52 1014.32 1014.12 1013.92 1013.72 1013.56 1013.32 1013.16 1012.92 1012.72 1012.48 1012.24 1012.00 1011.80 1011.60 1011.36 1011.12 1010.88 1010.68 1010.44 1010.16 1009.96 1009.76 1009.60 1009.40 1009.20 1009.04 1008.84 1008.64 1008.52 1008.36 1008.24 1008.16 1008.08 1008.00 1007.96
1020.44 1020.32 1020.24 1020.12 1020.00 1019.84 1019.68 1019.52 1019.32 1019.16 1018.96 1018.80 1018.64 1018.44 1018.28 1018.12 1017.92 1017.72 1017.48 1017.24 1017.04 1016.84 1016.60 1016.44 1016.20 1016.00 1015.80 1015.56 1015.32 1015.12 1014.96 1014.76 1014.60 1014.36 1014.12 1013.88 1013.64 1013.44 1013.32 1013.12 1012.88 1012.68 1012.44 1012.24 1011.96 1011.72 1011.44 1011.20 1011.00 1010.72 1010.52 1010.32 1010.00 1009.72 1009.48 1009.24 1009.04 1008.88 1008.72 1008.52 1008.32 1008.16 1008.04 1007.88 1007.72 1007.56 1007.44 1007.32 1007.32
1020.32 1020.20 1020.08 1019.96 1019.84 1019.72 1019.52 1019.32 1019.16 1019.00 1018.80 1018.64 1018.48 1018.32 1018.12 1017.92 1017.72 1017.48 1017.24 1017.00 1016.72 1016.56 1016.36 1016.20 1016.00 1015.80 1015.56 1015.32 1015.12 1014.92 1014.72 1014.56 1014.32 1014.16 1013.92 1013.72 1013.44 1013.20 1013.04 1012.84 1012.64 1012.44 1012.20 1011.92 1011.64 1011.36 1011.08 1010.84 1010.56 1010.32 1010.08 1009.88 1009.64 1009.40 1009.12 1008.84 1008.64 1008.44 1008.28 1008.04 1007.88 1007.72 1007.56 1007.40 1007.20 1007.04 1006.84 1006.72 1006.64
1020.24 1020.12 1019.96 1019.88 1019.72 1019.52 1019.32 1019.16 1019.00 1018.84 1018.64 1018.48 1018.32 1018.12 1017.92 1017.72 1017.48 1017.24 1016.96 1016.72 1016.56 1016.36 1016.20 1016.00 1015.84 1015.60 1015.40 1015.16 1014.96 1014.72 1014.52 1014.32 1014.16 1013.92 1013.72 1013.48 1013.24 1013.04 1012.76 1012.60 1012.36 1012.16 1011.88 1011.64 1011.36 1011.08 1010.80 1010.48 1010.20 1009.92 1009.72 1009.48 1009.28 1009.00 1008.76 1008.56 1008.32 1008.12 1007.92 1007.72 1007.48 1007.32 1007.16 1007.00 1006.76 1006.56 1006.36 1006.24 1006.16
1020.16 1020.00 1019.88 1019.72 1019.56 1019.32 1019.16 1019.00 1018.84 1018.68 1018.48 1018.32 1018.12 1017.96 1017.72 1017.48 1017.24 1016.96 1016.72 1016.52 1016.40 1016.24 1016.08 1015.88 1015.68 1015.44 1015.24 1015.00 1014.76 1014.56 1014.32 1014.12 1013.96 1013.72 1013.48 1013.20 1013.04 1012.76 1012.56 1012.32 1012.12 1011.88 1011.60 1011.36 1011.08 1010.80 1010.48 1010.20 1009.92 1009.60 1009.32 1009.08 1008.88 1008.68 1008.44 1008.28 1008.00 1007.80 1007.60 1007.44 1007.20 1007.04 1006.88 1006.68 1006.48 1006.28 1006.04 1005.92 1005.84
1020.00 1019.88 1019.76 1019.60 1019.40 1019.16 1019.04 1018.88 1018.72 1018.56 1018.36 1018.16 1018.00 1017.72 1017.52 1017.24 1016.96 1016.72 1016.60 1016.44 1016.32 1016.16 1016.00 1015.76 1015.56 1015.32 1015.04 1014.80 1014.60 1014.36 1014.16 1013.92 1013.72 1013.48 1013.28 1013.04 1012.76 1012.52 1012.32 1012.04 1011.84 1011.60 1011.32 1011.08 1010.80 1010.52 1010.20 1009.88 1009.60 1009.32 1009.00 1008.72 1008.52 1008.32 1008.16 1007.88 1007.68 1007.44 1007.24 1007.04 1006.88 1006.72 1006.60 1006.40 1006.20 1006.04 1005.88 1005.72 1005.60
1019.88 1019.80 1019.64 1019.44 1019.24 1019.04 1018.88 1018.72 1018.60 1018.40 1018.20 1018.00 1017.80 1017.56 1017.32 1017.04 1016.80 1016.64 1016.52 1016.36 1016.20 1016.00 1015.80 1015.60 1015.36 1015.12 1014.84 1014.64 1014.44 1014.20 1013.96 1013.72 1013.44 1013.24 1013.04 1012.80 1012.56 1012.28 1012.00 1011.80 1011.60 1011.36 1011.12 1010.80 1010.52 1010.20 1009.88 1009.60 1009.28 1008.96 1008.68 1008.40 1008.16 1008.00 1007.76 1007.60 1007.36 1007.16 1006.92 1006.72 1006.48 1006.40 1006.28 1006.16 1006.00 1005.84 1005.72 1005.60 1005.48
1019.80 1019.68 1019.52 1019.32 1019.08 1018.88 1018.72 1018.60 1018.44 1018.24 1018.04 1017.84 1017.60 1017.36 1017.16 1016.92 1016.76 1016.60 1016.48 1016.32 1016.08 1015.84 1015.60 1015.36 1015.12 1014.84 1014.60 1014.36 1014.20 1014.00 1013.76 1013.52 1013.24 1013.04 1012.84 1012.60 1012.32 1012.08 1011.80 1011.56 1011.32 1011.08 1010.80 1010.48 1010.20 1009.88 1009.60 1009.28 1009.00 1008.68 1008.36 1008.04 1007.80 1007.64 1007.44 1007.28 1007.08 1006.88 1006.64 1006.40 1006.28 1006.16 1006.04 1005.92 1005.76 1005.64 1005.48 1005.40 1005.32
1019.72 1019.56 1019.40 1019.20 1018.96 1018.76 1018.60 1018.44 1018.28 1018.04 1017.84 1017.64 1017.44 1017.20 1017.04 1016.88 1016.72 1016.52 1016.36 1016.16 1015.92 1015.68 1015.40 1015.16 1014.88 1014.64 1014.40 1014.16 1014.00 1013.76 1013.52 1013.28 1013.04 1012.80 1012.60 1012.36 1012.12 1011.88 1011.60 1011.32 1011.08 1010.80 1010.52 1010.24 1009.92 1009.64 1009.32 1009.04 1008.72 1008.40 1008.04 1007.72 1007.52 1007.36 1007.20 1007.04 1006.80 1006.60 1006.40 1006.20 1006.08 1005.96 1005.84 1005.72 1005.56 1005.40 1005.28 1005.16 1005.04
1019.60 1019.44 1019.20 1019.04 1018.88 1018.64 1018.44 1018.32 1018.08 1017.88 1017.68 1017.44 1017.28 1017.12 1016.96 1016.80 1016.60 1016.40 1016.16 1015.92 1015.72 1015.48 1015.20 1014.96 1014.76 1014.56 1014.32 1014.08 1013.84 1013.60 1013.32 1013.04 1012.80 1012.60 1012.36 1012.16 1011.88 1011.60 1011.36 1011.12 1010.84 1010.56 1010.32 1010.00 1009.72 1009.40 1009.04 1008.72 1008.44 1008.12 1007.80 1007.48 1007.32 1007.16 1007.00 1006.80 1006.60 1006.40 1006.20 1006.00 1005.84 1005.68 1005.52 1005.36 1005.24 1005.16 1005.04 1004.92 1004.84
1019.48 1019.32 1019.12 1018.92 1018.72 1018.56 1018.32 1018.16 1017.96 1017.72 1017.52 1017.32 1017.16 1017.04 1016.88 1016.72 1016.48 1016.24 1016.00 1015.76 1015.48 1015.24 1015.04 1014.80 1014.60 1014.40 1014.16 1013.88 1013.68 1013.44 1013.16 1012.88 1012.60 1012.36 1012.12 1011.88 1011.64 1011.40 1011.08 1010.80 1010.56 1010.32 1010.08 1009.80 1009.44 1009.12 1008.80 1008.48 1008.16 1007.84 1007.52 1007.28 1007.16 1007.00 1006.80 1006.60 1006.40 1006.16 1006.00 1005.80 1005.60 1005.36 1005.20 1005.04 1004.96 1004.88 1004.80 1004.72 1004.60
1019.44 1019.24 1019.04 1018.84 1018.60 1018.44 1018.20 1018.00 1017.80 1017.60 1017.40 1017.24 1017.08 1016.88 1016.72 1016.52 1016.32 1016.08 1015.84 1015.56 1015.28 1015.04 1014.84 1014.64 1014.40 1014.16 1013.92 1013.68 1013.44 1013.24 1013.00 1012.72 1012.44 1012.16 1011.88 1011.68 1011.44 1011.16 1010.84 1010.56 1010.32 1010.08 1009.80 1009.52 1009.20 1008.88 1008.56 1008.24 1007.92 1007.56 1007.28 1007.12 1007.00 1006.88 1006.64 1006.40 1006.16 1005.92 1005.76 1005.60 1005.32 1005.08 1004.92 1004.84 1004.72 1004.68 1004.60 1004.52 1004.40
1019.32 1019.16 1019.00 1018.72 1018.52 1018.32 1018.12 1017.88 1017.68 1017.48 1017.32 1017.16 1017.00 1016.80 1016.60 1016.32 1016.08 1015.84 1015.60 1015.40 1015.16 1014.88 1014.64 1014.44 1014.20 1013.96 1013.72 1013.48 1013.24 1013.00 1012.76 1012.56 1012.28 1012.00 1011.72 1011.44 1011.20 1010.92 1010.64 1010.32 1010.08 1009.84 1009.60 1009.28 1008.96 1008.64 1008.32 1008.00 1007.68 1007.36 1007.12 1006.96 1006.84 1006.64 1006.40 1006.16 1005.88 1005.72 1005.48 1005.28 1005.04 1004.88 1004.72 1004.64 1004.52 1004.44 1004.36 1004.28 1004.20
1019.24 1019.08 1018.88 1018.68 1018.44 1018.20 1018.00 1017.76 1017.60 1017.44 1017.24 1017.04 1016.88 1016.64 1016.44 1016.16 1015.88 1015.64 1015.44 1015.20 1015.04 1014.72 1014.48 1014.24 1014.00 1013.76 1013.56 1013.32 1013.04 1012.76 1012.52 1012.32 1012.04 1011.76 1011.48 1011.24 1011.00 1010.72 1010.44 1010.16 1009.84 1009.56 1009.32 1009.04 1008.72 1008.44 1008.12 1007.76 1007.48 1007.20 1007.00 1006.80 1006.60 1006.40 1006.16 1005.88 1005.68 1005.44 1005.24 1005.04 1004.80 1004.64 1004.52 1004.40 1004.28 1004.16 1004.08 1004.00 1003.88
1019.16 1019.00 1018.80 1018.60 1018.32 1018.12 1017.88 1017.68 1017.52 1017.32 1017.16 1016.92 1016.72 1016.44 1016.24 1016.00 1015.72 1015.48 1015.24 1015.08 1014.88 1014.68 1014.40 1014.16 1013.88 1013.60 1013.36 1013.12 1012.84 1012.56 1012.24 1012.00 1011.80 1011.56 1011.32 1011.04 1010.80 1010.56 1010.24 1009.92 1009.60 1009.32 1009.04 1008.76 1008.52 1008.24 1007.92 1007.60 1007.32 1007.04 1006.80 1006.60 1006.40 1006.16 1005.96 1005.72 1005.48 1005.24 1005.00 1004.76 1004.56 1004.36 1004.20 1004.08 1004.00 1003.88 1003.76 1003.72 1003.60
1019.04 1018.88 1018.72 1018.52 1018.28 1018.00 1017.80 1017.60 1017.44 1017.24 1017.04 1016.84 1016.60 1016.32 1016.08 1015.88 1015.60 1015.36 1015.16 1014.96 1014.72 1014.56 1014.32 1014.00 1013.72 1013.44 1013.20 1012.92 1012.64 1012.32 1012.00 1011.72 1011.56 1011.32 1011.12 1010.88 1010.60 1010.32 1010.00 1009.72 1009.40 1009.12 1008.84 1008.60 1008.32 1008.04 1007.76 1007.44 1007.16 1006.88 1006.64 1006.44 1006.24 1006.04 1005.84 1005.60 1005.32 1005.04 1004.80 1004.56 1004.32 1004.12 1003.92 1003.76 1003.68 1003.60 1003.48 1003.40 1003.28
1018.92 1018.76 1018.60 1018.36 1018.16 1017.92 1017.72 1017.48 1017.28 1017.08 1016.88 1016.72 1016.48 1016.20 1015.96 1015.72 1015.52 1015.28 1015.04 1014.80 1014.60 1014.36 1014.16 1013.84 1013.52 1013.24 1013.00 1012.72 1012.44 1012.16 1011.88 1011.56 1011.32 1011.08 1010.88 1010.64 1010.36 1010.08 1009.80 1009.52 1009.24 1008.96 1008.64 1008.40 1008.16 1007.88 1007.56 1007.28 1007.04 1006.76 1006.56 1006.32 1006.12 1005.92 1005.68 1005.44 1005.16 1004.88 1004.60 1004.44 1004.16 1003.92 1003.68 1003.44 1003.32 1003.20 1003.12 1003.04 1003.00
Wind_Speed
3 3 3 4 3 3 3 3 4 4 4 4 5 5 5 5 6 6 6 6 6 7 7 7 8 8 10 12 12 13 13 13 13 14 14 14 14 14 14 14 13 14 14 14 14 13 12 12 11 9 8 8 9 9 9 9 10 10 10 10 10 10 11 12 12 13 14 14 12
4 4 4 4 4 3 3 3 4 4 4 4 4 5 5 5 6 6 7 7 7 7 7 7 8 10 11 13 13 13 13 13 14 14 14 14 14 14 14 14 14 14 14 14 14 12 11 11 11 9 8 8 9 10 10 9 9 10 11 12 11 10 10 11 11 12 13 13 12
4 4 4 4 4 3 3 3 4 4 5 5 4 5 5 5 6 6 7 7 8 8 8 8 9 10 12 13 12 12 12 13 14 14 14 14 14 15 15 14 15 15 15 14 13 12 11 12 11 10 9 9 9 10 10 10 10 11 11 12 10 9 9 9 10 11 11 10 11
4 4 4 4 5 5 4 4 5 5 5 5 5 5 5 5 5 6 7 8 9 8 8 8 9 10 11 12 13 13 13 13 14 15 15 14 15 15 16 15 15 15 15 14 14 14 13 13 10 9 9 11 12 11 10 9 10 10 10 10 9 9 9 9 9 9 9 9 10
4 4 4 5 5 6 5 5 6 6 6 5 5 5 5 5 6 6 7 8 8 8 9 10 10 10 11 12 14 14 14 14 14 14 14 15 15 15 15 16 15 15 14 14 14 14 14 13 10 9 9 11 10 10 10 11 11 11 10 8 8 9 9 9 9 8 8 8 9
5 5 5 5 6 6 5 5 6 6 6 5 6 6 7 6 6 7 8 8 9 10 11 12 11 12 12 13 14 14 14 14 14 14 14 15 15 15 15 16 15 15 14 14 14 14 13 12 10 9 9 10 10 11 12 13 12 11 10 9 9 8 9 9 9 8 9 10 11
5 6 6 6 6 6 6 6 6 6 6 6 7 8 9 9 9 10 11 10 10 10 11 10 11 12 12 13 14 14 14 14 14 14 15 15 15 15 15 15 15 15 14 14 14 13 12 11 10 9 9 10 9 10 12 12 11 11 11 10 9 8 9 10 9 9 10 12 14
6 6 7 7 7 7 7 7 6 6 6 6 8 9 11 11 12 12 12 11 10 10 10 10 11 13 13 13 14 14 14 15 15 15 14 14 15 15 15 15 15 15 15 14 14 13 13 11 10 9 9 9 9 9 11 12 13 12 12 12 10 9 9 9 9 9 11 13 14
5 6 7 7 7 7 7 7 7 7 7 8 9 10 11 11 12 12 12 11 11 11 11 11 13 14 15 15 15 15 14 14 15 15 15 14 15 16 15 15 15 15 15 14 14 14 14 11 10 9 10 9 9 10 11 13 14 14 14 13 12 11 11 10 11 11 12 13 14
6 7 7 7 7 7 7 7 7 7 8 9 10 11 11 12 12 12 11 10 11 12 12 12 13 14 15 15 15 15 14 14 14 15 15 15 16 16 16 15 15 15 15 14 13 14 14 12 11 11 11 10 12 13 14 15 15 15 14 11 12 13 14 13 13 14 14 13 14
7 7 7 7 7 7 7 7 7 7 8 9 10 11 11 11 12 11 11 11 12 13 14 13 14 15 15 14 14 14 14 14 14 14 15 16 16 16 16 16 16 16 15 14 13 12 12 11 11 13 13 12 13 14 14 15 15 16 15 13 14 15 15 15 15 14 14 14 15
8 7 7 7 7 7 7 7 7 7 8 9 10 11 11 11 11 12 12 13 14 14 14 14 14 15 15 13 14 14 14 14 15 15 16 16 16 17 16 16 16 16 16 15 13 12 11 11 12 14 15 15 13 12 13 15 15 15 16 15 15 15 16 16 16 14 13 13 14
7 7 7 7 7 7 7 7 7 7 8 10 10 10 11 11 12 13 13 14 14 14 13 14 14 14 14 13 13 14 14 14 15 15 15 16 16 16 16 16 16 16 15 14 13 12 12 12 14 15 16 16 14 13 14 15 15 16 16 16 16 16 16 17 16 15 15 15 15
7 7 7 7 7 7 7 7 7 8 9 10 11 11 11 11 12 12 13 13 14 14 14 14 13 13 13 14 14 15 15 15 16 16 16 16 16 16 16 15 16 15 15 13 13 13 14 14 15 15 16 16 16 16 15 16 15 16 16 16 17 17 17 17 17 16 16 16 16
7 7 7 7 7 7 7 7 7 8 9 11 11 11 11 11 12 12 13 13 14 14 13 13 13 13 13 15 15 16 16 16 16 16 16 16 16 16 16 15 16 15 15 14 14 14 15 15 16 16 16 17 17 17 16 16 16 16 16 16 17 17 17 17 17 16 16 16 16
7 7 7 7 7 7 7 8 7 8 9 11 11 12 12 11 11 12 13 14 13 13 13 13 14 13 14 14 15 15 16 15 15 16 16 16 16 16 16 16 16 16 16 16 15 15 15 15 15 16 16 17 17 17 17 17 17 17 17 17 17 18 18 18 17 17 16 16 16
7 7 7 7 8 8 8 8 8 9 10 11 12 12 12 12 11 12 13 14 13 13 14 15 14 14 14 14 14 14 14 15 15 15 15 15 16 16 16 16 16 16 16 16 16 16 16 16 16 16 16 17 17 17 17 17 16 17 17 17 18 18 18 18 17 17 17 17 17
7 7 7 7 8 9 9 10 10 11 11 13 13 13 12 12 13 13 13 14 14 15 16 16 15 14 14 15 14 13 13 14 15 15 15 16 16 16 17 17 17 16 16 16 17 17 17 17 17 16 16 16 16 16 16 16 16 16 16 17 17 17 17 18 18 17 17 17 18
8 8 8 8 8 9 10 11 11 12 12 13 13 13 13 14 14 14 14 14 14 15 16 16 16 15 15 16 15 14 14 14 15 16 16 16 16 16 17 17 17 17 17 17 17 17 17 17 17 17 16 16 16 16 16 17 16 16 17 17 17 17 17 18 18 17 17 18 18
8 8 8 8 9 10 10 11 12 12 13 13 13 14 14 15 14 15 15 15 15 15 16 16 16 16 16 16 16 16 15 14 15 16 16 16 16 16 17 17 17 17 17 17 17 17 17 17 17 17 17 17 17 17 18 17 17 17 17 17 17 17 18 18 18 18 18 18 18
8 8 8 9 9 10 11 11 12 12 13 13 14 15 15 15 15 15 15 15 15 15 15 16 16 16 16 16 17 16 15 14 14 15 16 16 16 17 17 16 17 16 16 16 16 16 17 17 17 17 17 17 18 18 18 17 17 18 18 17 17 18 18 19 19 19 18 18 18
8 8 8 9 9 10 11 12 12 13 13 14 14 14 15 15 15 15 15 15 15 15 15 15 16 16 16 16 17 16 16 14 14 15 15 15 15 16 16 16 16 16 16 16 16 16 17 17 17 17 17 17 17 18 18 18 18 18 18 18 19 19 19 20 19 19 19 19 19
8 8 8 9 9 10 11 12 12 13 13 14 14 14 15 15 15 15 15 15 14 15 15 15 15 15 16 16 17 16 16 15 15 15 15 15 15 16 16 15 16 16 16 15 15 15 16 16 16 17 16 16 17 17 18 18 18 18 18 19 20 20 20 20 19 19 19 19 19
8 8 8 8 10 11 11 12 12 13 14 14 14 15 15 15 15 15 15 15 15 15 15 13 14 15 16 16 16 16 16 16 16 16 16 16 16 16 16 15 15 15 15 13 14 15 15 14 14 14 14 15 15 16 16 17 17 17 17 18 19 19 19 19 20 20 20 19 19
8 9 9 9 10 11 11 12 13 13 14 14 14 15 15 15 15 15 15 15 15 15 15 15 15 15 15 15 15 15 15 15 16 16 16 17 17 16 16 14 14 13 12 13 17 20 21 20 17 14 13 13 14 14 15 16 16 16 16 16 17 17 18 19 20 20 20 20 19
8 9 10 10 11 11 12 13 13 14 14 14 15 15 15 15 14 15 15 15 15 15 15 15 15 14 14 14 14 14 14 14 15 15 16 17 17 17 16 14 13 12 12 14 19 23 25 26 24 21 17 14 13 13 14 14 15 16 17 17 16 16 16 16 18 19 20 20 20
9 9 10 11 11 12 12 13 13 14 14 14 15 15 15 15 14 14 15 15 15 15 15 14 14 14 13 13 14 15 15 14 15 15 16 16 17 17 16 14 13 12 13 17 22 25 27 27 28 27 23 17 15 13 13 12 14 15 16 16 16 16 16 16 17 18 19 19 19
9 10 10 11 12 12 13 13 13 14 14 15 15 15 15 15 15 15 15 15 15 15 14 13 13 12 11 11 13 15 16 16 15 15 15 16 16 16 16 15 13 14 16 21 25 27 27 28 28 28 26 22 17 14 13 13 13 13 13 13 13 14 14 15 15 15 16 17 17
9 10 11 11 12 13 13 13 14 14 14 15 15 15 15 15 15 15 15 15 15 15 13 12 11 10 11 12 14 15 16 16 15 15 15 16 16 16 16 16 16 17 20 24 26 27 28 28 28 28 28 26 18 13 11 10 10 10 11 10 11 11 12 12 12 12 13 14 14
9 10 11 12 13 13 13 13 14 14 14 14 14 15 15 15 15 15 15 16 16 15 13 12 12 13 14 15 15 15 14 15 14 15 15 17 17 17 17 17 17 18 20 24 26 27 27 28 28 28 28 28 22 16 12 10 10 10 10 10 11 12 12 12 12 12 12 11 11
9 10 11 12 13 13 14 14 14 14 14 14 14 15 15 15 15 15 15 15 15 15 15 15 15 16 16 15 15 14 15 15 15 15 16 17 18 18 18 19 19 19 21 24 26 27 27 27 28 28 28 29 23 17 12 11 11 10 10 10 11 12 13 13 12 12 12 11 11
10 10 11 12 13 13 14 14 14 14 14 15 15 15 15 16 15 15 15 15 15 15 16 16 16 16 16 16 15 15 15 16 16 16 16 16 18 18 19 19 19 19 20 24 26 27 27 28 28 28 28 29 23 18 14 12 11 11 12 12 13 14 14 12 12 12 12 12 11
10 10 11 12 13 14 14 14 14 14 15 15 15 15 15 16 15 15 15 14 14 15 15 16 16 16 16 16 16 16 17 17 17 18 18 18 18 19 19 18 17 17 20 24 26 27 27 28 28 28 28 28 22 17 13 12 11 10 11 12 13 14 14 14 13 13 13 13 12
10 11 12 12 13 14 14 14 14 14 15 15 15 15 15 15 16 16 15 14 14 14 14 14 15 15 15 15 16 16 17 16 17 18 18 18 18 18 18 16 14 16 20 25 26 27 28 28 27 27 27 27 20 14 12 12 11 11 11 12 13 14 14 14 14 14 14 14 13
10 11 12 13 13 14 14 14 15 15 15 15 16 16 16 15 15 15 15 15 15 14 14 14 14 14 15 16 16 17 17 18 18 18 18 18 18 18 18 17 16 18 22 26 27 27 27 27 27 27 26 23 16 12 11 12 12 12 13 14 15 15 15 14 13 12 12 13 13
10 11 12 13 14 14 14 15 15 15 15 16 16 16 16 15 15 15 15 15 15 15 14 15 15 15 16 17 16 16 17 17 18 18 18 18 18 18 18 17 17 19 22 25 26 27 26 26 27 27 25 19 13 10 10 11 11 12 13 14 14 14 14 12 11 11 11 12 13
10 11 12 13 14 14 15 15 15 16 16 16 16 16 16 16 15 14 14 14 14 14 15 15 16 16 17 17 17 16 17 17 18 18 18 18 18 18 18 17 17 19 21 24 25 26 26 26 27 26 23 17 12 10 10 10 10 10 11 12 12 12 11 10 10 11 11 12 12
10 11 12 13 14 14 15 15 15 16 16 16 16 15 15 15 14 14 13 13 13 14 15 16 16 17 17 17 17 17 17 17 18 18 18 18 18 17 17 17 17 18 19 22 24 26 26 26 27 26 23 16 13 11 10 9 9 10 10 10 10 10 10 9 8 9 10 12 14
11 11 12 13 14 14 15 15 15 15 16 16 15 15 15 14 13 13 13 13 13 14 15 16 16 17 17 17 17 17 17 18 18 18 18 17 17 18 18 18 17 17 19 22 24 25 26 26 26 25 23 17 14 11 10 9 9 10 10 10 10 11 11 10 9 8 9 12 15
11 11 12 13 14 14 15 15 15 15 15 15 15 15 15 14 14 14 14 13 14 14 14 15 16 17 17 17 17 17 17 18 17 17 17 17 18 19 19 18 18 18 19 22 24 25 25 24 24 24 23 17 13 10 9 8 9 10 10 10 11 11 11 11 10 9 9 10 13
10 11 12 13 14 14 15 15 15 15 14 14 15 14 14 14 14 14 14 14 14 14 14 13 15 16 17 17 16 16 16 17 17 17 18 18 18 18 18 17 18 18 19 20 22 23 23 23 23 24 23 18 14 10 9 8 9 10 11 12 12 11 11 11 10 10 9 9 10
Wind_Direction
237 238 240 242 245 250 256 262 265 267 269 274 281 286 290 293 293 293 293 292 291 292 293 293 293 293 293 294 292 291 290 289 288 287 286 286 286 286 286 286 285 285 285 284 285 285 284 283 281 279 277 276 275 274 272 270 270 269 267 264 264 264 263 262 260 257 255 253 251
243 243 245 250 257 261 264 268 270 272 273 274 279 284 288 290 291 291 291 290 289 290 291 292 292 292 292 292 291 290 289 289 288 288 287 287 286 286 285 284 284 284 283 283 283 283 282 282 281 279 277 276 275 274 273 270 269 269 268 266 265 265 264 263 261 260 258 256 252
252 252 253 255 261 265 267 270 272 276 278 279 281 283 285 287 287 288 289 289 289 289 289 289 291 292 292 292 290 289 288 287 288 288 288 288 288 287 286 286 285 284 283 283 282 281 280 281 280 279 277 276 276 275 275 274 272 271 270 269 267 266 264 263 262 261 259 256 252
254 257 261 263 263 264 266 272 281 285 286 288 288 286 284 283 283 285 287 289 289 288 287 288 291 293 293 293 292 290 288 288 289 289 289 289 289 289 288 287 286 284 283 282 280 279 279 279 278 276 275 276 276 275 275 275 273 272 271 270 269 267 266 265 265 263 261 259 255
258 259 264 270 271 271 272 276 282 286 290 293 293 292 289 286 285 286 287 289 290 291 292 293 293 292 292 291 291 291 290 289 289 289 289 290 289 289 288 286 285 283 282 281 279 279 278 278 277 275 275 276 275 274 273 274 273 272 270 269 268 267 266 266 265 263 262 261 258
273 275 275 275 275 275 275 276 279 283 287 292 292 292 292 292 292 293 294 294 294 295 295 293 291 290 290 292 292 293 292 292 291 290 289 289 288 288 287 286 284 283 282 281 280 279 278 278 276 275 274 275 274 273 273 274 273 271 269 268 266 265 265 264 264 263 262 261 261
283 285 285 282 279 278 278 281 283 286 287 288 289 289 290 292 294 295 295 294 295 295 294 292 292 292 294 295 295 294 294 293 292 291 290 289 288 288 288 287 286 285 283 283 282 280 279 277 276 276 276 275 275 274 274 273 271 270 269 268 267 266 265 265 265 264 264 263 263
282 282 281 281 280 280 281 283 287 289 290 289 290 291 292 293 293 293 293 293 293 293 294 294 295 295 295 295 294 293 293 293 292 292 291 290 290 290 290 289 288 287 286 285 284 283 281 279 276 276 276 275 274 274 273 273 271 270 269 269 269 267 266 265 264 263 263 264 263
282 279 277 277 278 279 281 283 285 286 288 289 290 291 292 293 292 293 293 294 294 295 295 296 296 296 295 294 293 293 293 293 293 293 293 292 292 292 292 291 291 290 289 288 287 285 284 281 277 275 275 274 274 274 274 274 273 271 270 270 269 268 266 265 263 263 262 263 262
284 283 282 282 281 282 284 286 285 284 284 286 288 289 290 292 293 294 294 295 296 297 297 297 297 297 296 295 294 294 294 294 295 295 295 295 294 294 294 293 292 292 291 290 288 287 285 282 278 276 275 274 274 275 275 275 274 272 271 270 270 269 269 267 265 264 263 262 261
282 283 285 287 288 290 292 292 291 289 288 289 292 293 294 294 295 295 295 296 297 296 296 296 297 297 296 296 296 296 296 297 297 296 296 296 295 295 294 293 292 291 290 289 288 286 284 280 278 276 275 274 274 274 274 273 272 271 269 268 269 269 269 268 267 265 264 262 261
280 282 284 286 289 292 293 294 295 296 296 296 297 298 298 298 298 298 297 297 297 296 296 297 298 298 298 297 297 298 298 298 297 297 296 296 295 294 293 292 291 290 289 288 287 284 281 278 278 277 276 275 274 273 273 273 272 270 269 268 268 268 268 267 266 265 264 263 262
280 284 286 288 290 292 293 295 297 299 300 301 301 302 302 302 302 302 301 300 299 299 300 301 300 299 299 298 299 299 299 299 298 297 296 295 295 294 293 292 291 290 289 288 286 283 281 279 278 278 278 277 275 273 273 273 272 271 270 270 269 268 268 267 266 265 264 263 262
281 284 286 290 292 295 297 300 301 303 305 305 305 305 305 305 305 304 303 302 302 302 302 302 301 300 300 301 301 300 299 298 297 296 295 294 293 292 292 291 290 289 288 287 285 283 281 279 278 278 277 277 275 274 273 272 272 271 270 270 269 268 268 267 266 265 263 261 260
283 284 287 290 294 298 302 304 304 306 307 307 307 308 307 306 306 306 305 304 303 302 302 302 302 302 302 302 301 300 299 298 296 295 294 293 292 291 291 290 289 289 288 287 285 283 281 279 278 277 276 276 275 274 274 272 271 270 269 268 268 268 267 266 266 264 262 260 258
286 288 291 295 298 301 304 305 306 308 309 308 309 309 308 307 306 306 305 305 304 303 303 303 303 303 302 301 301 300 299 297 296 294 293 293 292 292 291 290 289 289 288 287 285 283 281 279 278 276 276 275 275 275 274 272 271 269 268 267 266 266 266 265 264 263 261 259 257
290 292 296 299 302 304 305 306 307 308 308 309 309 308 307 306 306 306 306 305 305 304 304 303 303 303 302 301 301 300 299 297 296 294 294 293 293 292 291 290 289 289 288 287 285 283 281 279 277 276 275 274 274 273 272 271 269 267 265 264 263 262 261 261 260 259 258 257 256
294 297 300 303 304 305 305 306 306 307 307 307 307 307 306 306 306 305 305 304 304 304 303 303 302 301 301 301 300 299 298 297 296 294 293 293 292 291 290 289 288 288 287 286 284 282 281 279 278 276 275 274 273 272 271 270 267 265 262 261 259 258 256 256 255 254 254 253 253
297 301 304 306 306 306 306 306 307 307 306 306 306 305 305 305 305 304 303 303 303 303 303 302 301 301 300 299 299 298 297 295 295 294 293 292 291 290 289 288 288 287 286 284 283 281 280 280 279 277 276 275 274 273 272 270 269 266 264 261 259 257 255 253 252 250 250 249 249
298 302 305 306 306 306 306 306 306 306 305 305 305 305 304 304 304 303 303 303 303 303 302 301 300 300 299 299 298 298 296 295 294 293 293 292 291 290 289 288 288 286 285 283 283 282 282 281 281 280 279 277 276 275 274 272 270 268 266 264 262 259 256 254 252 250 248 247 246
299 302 304 305 305 305 304 304 304 304 304 304 304 304 304 304 304 303 303 303 303 302 301 299 299 299 299 299 298 297 296 294 294 293 292 291 291 290 290 289 289 288 287 286 285 285 284 284 283 281 280 278 276 275 273 271 269 267 265 263 261 258 257 255 254 252 249 247 245
300 302 304 304 303 303 303 304 304 304 304 304 304 304 304 304 304 303 303 303 302 301 299 298 298 298 298 299 298 297 296 294 293 292 291 291 291 291 291 290 290 290 289 289 288 287 286 284 282 280 278 276 274 271 269 267 266 263 261 259 257 255 254 253 252 251 249 247 246
302 303 303 303 303 303 304 304 304 304 304 304 305 305 305 305 304 304 303 302 301 300 299 298 297 298 298 298 297 296 295 293 292 291 291 291 291 292 292 292 292 292 291 290 288 287 285 283 281 279 276 273 271 270 268 266 265 262 260 257 255 253 252 250 249 249 248 247 245
302 303 304 304 305 305 305 305 305 305 305 306 306 307 306 306 305 304 303 302 300 299 299 298 298 298 298 298 297 295 295 294 294 294 294 294 294 294 295 295 294 292 291 289 287 286 284 283 281 278 276 273 271 269 267 265 263 261 259 257 255 253 251 249 247 246 246 245 244
302 303 303 304 305 305 305 306 306 307 307 307 307 307 306 306 305 304 303 302 301 300 300 300 300 300 300 299 298 297 297 297 297 297 297 297 296 296 296 295 294 292 290 288 287 287 286 285 284 282 279 275 273 271 269 267 264 262 260 258 257 255 252 249 247 245 243 242 241
303 303 304 304 305 306 306 307 307 307 307 307 307 307 307 306 305 304 303 302 302 303 304 305 304 303 302 301 301 301 300 299 299 298 298 298 297 296 296 295 293 292 290 289 289 290 289 289 288 287 285 281 278 275 273 271 271 270 269 267 265 262 258 252 248 244 242 240 238
303 304 305 306 307 307 307 307 308 308 308 308 308 307 307 306 304 303 303 303 306 307 308 308 307 305 304 302 302 302 301 300 299 298 297 296 296 296 296 295 294 292 290 290 291 292 292 292 292 291 290 287 283 280 278 276 277 277 275 273 272 270 267 262 256 250 246 242 238
303 304 305 307 307 307 308 309 310 310 309 309 308 307 306 305 303 303 304 307 310 312 311 309 307 306 304 302 302 301 300 299 299 298 297 297 296 296 296 296 295 293 292 292 294 294 295 295 295 294 293 291 287 284 282 280 280 278 276 274 276 277 276 274 268 261 254 248 242
302 304 306 307 307 308 309 311 311 310 310 309 308 306 305 304 304 306 309 312 314 313 312 309 307 304 302 300 300 299 299 298 298 299 299 299 298 298 297 296 295 294 294 295 296 296 296 296 296 295 294 294 292 289 286 283 278 276 276 278 283 286 287 286 281 276 269 260 249
302 304 305 306 308 309 310 311 311 310 310 308 307 306 306 305 308 311 314 315 314 312 309 306 304 301 299 298 298 298 298 298 299 300 301 301 300 299 298 297 297 296 296 297 297 297 297 297 296 296 296 296 294 292 288 284 278 275 276 279 286 290 292 292 289 286 281 273 260
302 303 305 306 308 309 310 311 311 310 309 308 308 307 308 310 313 315 315 314 311 308 305 303 301 299 298 298 298 298 298 300 302 302 302 301 300 299 299 298 298 297 296 297 297 297 297 298 298 298 298 298 297 295 291 288 284 281 281 284 290 294 296 296 294 290 285 279 270
301 303 305 307 308 309 310 311 311 310 309 309 309 310 312 313 314 314 313 311 308 306 304 303 301 301 301 301 301 302 302 303 304 303 302 301 300 299 299 298 298 297 296 297 298 298 299 299 300 300 300 300 299 298 295 292 288 286 287 290 294 296 297 296 293 289 285 280 274
302 304 307 308 309 310 311 311 311 311 311 311 312 313 314 315 314 312 310 309 306 305 304 303 303 304 305 306 306 306 305 304 303 302 301 300 299 299 298 297 296 296 297 298 299 300 301 301 301 301 301 302 302 301 299 295 291 289 290 293 294 293 291 289 287 285 284 281 276
305 307 308 309 310 311 311 312 312 312 312 313 314 315 315 314 312 311 309 308 306 304 303 303 304 304 305 306 306 306 305 304 303 302 302 301 299 298 297 297 295 296 298 299 300 301 301 302 302 302 303 304 304 303 300 297 294 292 291 292 292 289 286 283 282 281 280 278 274
307 308 310 310 311 311 312 312 313 314 314 315 316 315 314 312 310 309 308 306 305 304 303 304 304 304 305 305 305 304 304 303 303 302 302 301 299 298 297 296 295 296 298 299 300 301 302 302 303 303 304 306 306 302 298 297 295 293 292 291 290 287 285 281 279 277 276 275 271
307 309 310 310 311 312 312 313 314 315 316 316 316 314 313 310 309 307 306 305 305 304 305 305 305 306 306 306 305 304 304 303 302 302 301 301 300 299 299 298 297 297 298 299 301 302 302 303 304 305 306 307 306 302 297 295 295 293 290 288 287 287 287 285 281 278 275 273 268
307 308 309 310 311 312 313 314 316 316 316 316 314 313 311 309 308 306 306 306 306 306 306 306 306 305 305 305 305 304 303 302 302 302 301 302 302 301 300 299 297 297 298 299 301 303 304 304 305 306 307 309 307 302 298 295 293 290 287 284 285 288 291 290 286 281 276 271 266
307 308 308 309 311 312 314 316 317 316 315 314 313 311 310 308 307 306 307 308 307 307 307 306 305 304 304 304 303 303 303 302 302 302 302 302 302 301 300 299 297 297 298 300 302 303 304 305 305 307 310 311 309 305 301 296 292 288 285 283 286 291 294 292 288 282 275 268 264
306 307 308 309 311 313 314 316 316 315 314 312 311 310 310 308 307 307 308 309 308 306 305 303 302 302 302 304 303 303 303 303 302 302 302 302 301 301 301 300 299 299 300 301 303 304 304 305 307 310 313 313 311 307 301 295 291 289 288 289 292 295 295 293 289 282 273 264 261
305 306 307 309 311 313 315 315 314 313 312 311 310 310 309 308 308 308 309 308 306 304 301 299 300 300 302 304 304 304 303 303 302 302 301 301 301 301 302 302 301 300 300 300 302 303 305 308 312 316 317 314 312 307 301 295 293 293 295 298 300 299 297 295 290 283 273 262 257
305 306 308 310 313 314 314 314 313 312 311 311 310 309 309 309 309 308 308 305 304 302 300 298 299 301 302 304 304 303 303 302 301 301 301 301 301 301 302 301 300 299 298 298 300 304 309 315 319 320 319 315 312 308 303 300 298 300 302 304 303 300 296 293 289 283 275 262 253